Location: Unspecified
(43.8044°N, 11.0278°E)
Time: 03:23:23
(UTC+02:00)

Cosmos 1674 - Visible Passes

Search period start: 30 May 2017 00:00
Search period end: 09 June 2017 00:00
Orbit: 499 x 522 km, 82.5° (Epoch: 29 May)

Date Brightness Start Highest point End Pass type
(mag) Time Alt. Az. Time Alt. Az. Time Alt. Az.
30 May 3.2 01:58:03 55° NW 01:58:03 55° NW 02:01:29 10° N visible
31 May 3.0 01:41:34 64° NNW 01:41:34 64° NNW 01:44:58 10° N visible
01 Jun 3.0 01:25:04 65° NNE 01:25:04 65° NNE 01:28:24 10° N visible
02 Jun 3.2 01:08:34 55° NE 01:08:34 55° NE 01:11:49 10° NNE visible
03 Jun 3.4 00:52:02 45° ENE 00:52:02 45° ENE 00:55:12 10° NNE visible
03 Jun 5.2 02:26:56 12° WNW 02:27:23 12° WNW 02:29:04 10° NW visible
04 Jun 3.7 00:35:30 36° ENE 00:35:30 36° ENE 00:38:32 10° NNE visible
04 Jun 4.9 02:10:24 15° WNW 02:10:43 15° WNW 02:13:04 10° NNW visible
05 Jun 4.0 00:18:57 29° ENE 00:18:57 29° ENE 00:21:49 10° NNE visible
05 Jun 4.7 01:53:51 19° WNW 01:54:05 19° WNW 01:56:52 10° NNW visible
06 Jun 4.3 00:02:23 24° ENE 00:02:23 24° ENE 00:05:03 10° NE visible
06 Jun 4.4 01:37:17 23° WNW 01:37:27 23° WNW 01:40:34 10° NNW visible
06 Jun 4.5 23:45:48 19° E 23:45:48 19° E 23:48:13 10° NE visible
07 Jun 4.1 01:20:42 28° W 01:20:50 29° WNW 01:24:13 10° NNW visible
07 Jun 4.8 23:29:12 16° E 23:29:12 16° E 23:31:16 10° NE visible
08 Jun 3.8 01:04:06 36° W 01:04:13 36° WNW 01:07:47 10° N visible
08 Jun 5.0 23:12:36 12° E 23:12:36 12° E 23:14:06 10° ENE visible
